• Join FlightAware (Why Join?)
  • Login
  • US Flag 
Gobble Gobble! 
02:05AM EST


 

Airport Tracker/Info


-or-


 

Live Flight TrackerFlight Track Log ✈ FLG3862 ✈ 25-May-2013 ✈ KBTV - KDTW

Flight Track Log - Related Links

Times and Time Zones

All times are in EDT time to prevent confusion due to time zone crossing. See the FLG3862 flight status page for this flight to view local times or setup timezone preferences in your user account.

Time Position Orientation Groundspeed Altitude Reporting Facility
EDT Latitude Longitude Course Direction KTS MPH feet Rate Location/Type
12:41PM 44.4725 -73.3331 256° West 278 320 6,600  Level Boston Center
12:42PM 44.3965 -73.5609 253° West  Level FlightAware Approximate
12:42PM 44.4547 -73.4522 258° West 296 341 9,400  Level Boston Center
12:43PM 44.3675 -73.6961 253° West  Level FlightAware Approximate
12:43PM 44.4328 -73.5739 256° West 311 358 11,200  Level Boston Center
12:44PM 44.3475 -73.8343 259° West  Level FlightAware Approximate
12:44PM 44.4106 -73.7100 257° West 340 391 12,400  Level Boston Center
12:45PM 44.3262 -73.9721 256° West  Level FlightAware Approximate
12:45PM 44.3839 -73.8547 256° West 370 426 13,700  Level Boston Center
12:46PM 44.3011 -74.1086 256° West  Level FlightAware Approximate
12:46PM 44.3569 -73.9964 255° West 381 438 15,300  Level Boston Center
12:47PM 44.3278 -74.1436 255° West 387 445 16,300 960 Climbing Boston Center
12:48PM 44.3006 -74.2936 256° West 394 453 17,300 900 Climbing Boston Center
12:49PM 44.2711 -74.4436 255° West 400 460 18,200 900 Climbing Boston Center
12:50PM 44.2411 -74.5989 255° West 407 468 19,200 960 Climbing Boston Center
12:51PM 44.2131 -74.7544 256° West 412 474 20,200 960 Climbing Boston Center
12:52PM 44.1847 -74.9097 256° West 412 474 21,200 960 Climbing Boston Center
12:53PM 44.1564 -75.0619 256° West 412 474 22,200 900 Climbing Boston Center
12:54PM 44.1258 -75.2139 254° West 412 474 23,200 840 Climbing Boston Center
12:55PM 44.1044 -75.4039 261° West 412 474 24,100 720 Climbing Boston Center
12:56PM 44.0978 -75.5683 267° West 412 474 24,700 660 Climbing Boston Center
12:57PM 44.0889 -75.7383 266° West 434 499 25,500 780 Climbing Boston Center
12:58PM 44.0797 -75.9083 266° West 441 507 26,300 780 Climbing Boston Center
12:59PM 44.0725 -76.0756 267° West 441 507 27,100 720 Climbing Boston Center
01:00PM 44.0631 -76.2428 266° West 441 507 27,900 360 Climbing Boston Center
01:01PM 44.0497 -76.4472 265° West 441 507 28,000  Climbing Boston Center
01:04PM 44.0167 -76.8000 263° West 460 529 28,000  Level Toronto Center
01:05PM 44.0000 -76.9667 262° West 460 529 28,000  Level Toronto Center
01:06PM 43.9833 -77.1500 263° West 460 529 28,000  Level Toronto Center
01:07PM 43.9667 -77.3333 263° West 450 518 28,000  Level Toronto Center
01:08PM 43.9667 -77.5000 270° West 450 518 28,000  Level Toronto Center
01:09PM 43.9000 -77.6667 241° Southwest 440 506 28,000  Level Toronto Center
01:10PM 43.8500 -77.8000 243° Southwest 450 518 28,000  Level Toronto Center
01:11PM 43.8000 -77.9500 245° Southwest 450 518 28,000  Level Toronto Center
01:12PM 43.7333 -78.1167 241° Southwest 450 518 28,000  Level Toronto Center
01:13PM 43.6833 -78.2667 245° Southwest 450 518 28,000  Level Toronto Center
01:14PM 43.6167 -78.4333 241° Southwest 460 529 28,000  Level Toronto Center
01:14PM 43.5911 -78.5828 257° West 455 524 28,000  Level Cleveland Center
01:15PM 43.5375 -78.7364 244° Southwest 455 524 28,000  Level Cleveland Center
01:17PM 43.4500 -78.9000 234° Southwest 460 529 28,000  Level Toronto Center
01:18PM 43.4000 -79.0667 248° West 460 529 28,000  Level Toronto Center
01:19PM 43.3333 -79.2167 239° Southwest 460 529 28,000  Level Toronto Center
01:20PM 43.2833 -79.3500 243° Southwest 460 529 28,000  Level Toronto Center
01:21PM 43.2167 -79.5167 241° Southwest 460 529 28,000  Level Toronto Center
01:22PM 43.1667 -79.6833 248° West 460 529 28,000  Level Toronto Center
01:23PM 43.1000 -79.8333 239° Southwest 450 518 28,000 -480 Level Toronto Center
01:24PM 43.0500 -79.9833 246° West 450 518 27,100 -1,320 Descending Toronto Center
01:25PM 42.9833 -80.1333 239° Southwest 470 541 25,400 -1,500 Descending Toronto Center
01:26PM 42.9333 -80.3000 248° West 470 541 24,100 -1,200 Descending Toronto Center
01:27PM 42.8667 -80.4500 239° Southwest 470 541 23,000 -720 Descending Toronto Center
01:27PM 42.8417 -80.5519 252° West 477 549 23,000  Level Cleveland Center
01:28PM 42.7831 -80.6992 242° Southwest 467 537 23,000  Level Cleveland Center
01:29PM 42.7244 -80.8489 242° Southwest 458 527 23,000  Level Cleveland Center
01:30PM 42.6928 -81.0011 254° West 438 504 23,000  Level Cleveland Center
01:31PM 42.6756 -81.1592 262° West 420 483 23,000  Level Cleveland Center
01:32PM 42.6600 -81.3144 262° West 415 478 23,000 -540 Level Cleveland Center
01:33PM 42.6403 -81.4694 260° West 409 471 22,000 -1,500 Descending Cleveland Center
01:34PM 42.6244 -81.6244 262° West 419 482 20,100 -1,860 Descending Cleveland Center
01:35PM 42.6042 -81.7792 260° West 425 489 18,300 -1,560 Descending Cleveland Center
01:36PM 42.5836 -81.9339 260° West 420 483 17,000 -1,560 Descending Cleveland Center
01:37PM 42.5672 -82.0800 261° West 409 471 15,200 -1,860 Descending Cleveland Center
01:38PM 42.5483 -82.2375 261° West 389 448 13,100 -1,680 Descending Cleveland Center
01:39PM 42.5342 -82.3442 260° West 392 451 12,200 -660 Descending Cleveland Center
01:40PM 42.5175 -82.4817 261° West 367 422 12,000 -120 Descending Cleveland Center
01:41PM 42.4861 -82.6103 252° West 372 428 12,000 -600 Level Cleveland Center
01:42PM 42.4422 -82.7356 245° Southwest 358 412 10,900 -1,380 Descending Cleveland Center
01:43PM 42.4089 -82.8414 247° West 269 310 9,300 -1,560 Descending Cleveland Center
01:44PM 42.3919 -82.9503 258° West 290 334 7,600 -1,740 Descending Cleveland Center
01:45PM 42.3839 -83.0456 264° West 269 310 5,600 -1,800 Descending Cleveland Center
01:46PM 42.3714 -83.1381 260° West 242 278 4,000 -1,620 Descending Cleveland Center
01:46PM 42.3714 -83.1381 260° West 258 297 4,000 -840 Level Cleveland Center
01:47PM 42.3428 -83.2069 241° Southwest 233 268 3,200 -840 Descending Cleveland Center